Back to catalog

THOR BURNER 2A DEB

AlivePO
NORAD 29139·DEBRIS·🇺🇸 United States

Launched Mar 16, 1974 from Vandenberg Space Force Base

Loading…

Next Passes (next 24 hours)

TLE

AgingSource: Space-Track

Epoch: Sep 8, 2026, 07:19 UTC

1 29139U 74015F   26251.30554691  .00000567  00000-0  20864-3 0  9991
2 29139  99.1100 277.6208 0058042 301.1447 119.3566 14.35852336685816

Track THOR BURNER 2A DEB in real time with AllMySat

Download on the App Store